Powrót do katalogu

ARIANE 1 DEB

AktywnySSO
NORAD 17815·DEBRIS·🇫🇷 France

Wystrzelony Feb 22, 1986 z Guiana Space Centre

Loading…

Następne Przeloty (najbliższe 24 godziny)

TLE

ŚwieżeSource: Space-Track

Epoka: Sep 14, 2026, 10:02 UTC

1 17815U 86019ME  26257.41869656  .00000636  00000-0  19690-3 0  9996
2 17815  98.2103 237.8962 0024950 200.4324 312.7431 14.44195232 75399

Śledź ARIANE 1 DEB w czasie rzeczywistym z AllMySat

Download on the App Store